When you browse on this site, cookies collect data to enhance your experience and personalize the content and advertising you see.
Visit our Privacy Policy to learn more. By continuing to use the site, you agree to this use of cookies and data.
  • en Suisse
  • Liste des pays
  • À 7 jours
  • Température de l'eau
  • Carte météo
  • Widgets météo
  • user-avatar
    Se connecter

    Météo par heure à Cairns

    Ce jour, 21 Février, Vendredi

    Heure Température Précipitation Vent Pression Humidité
    00:00 +27°C° 0.3 mm 1 m/s 755 mmHg 95%
    01:00 +27°C° 0.3 mm 1 m/s 755 mmHg 96%
    02:00 +27°C° 0 mm 1 m/s 755 mmHg 96%
    03:00 +27°C° 0 mm 1 m/s 754 mmHg 96%
    04:00 +27°C° 0 mm 1 m/s 754 mmHg 95%
    05:00 +27°C° 0.1 mm 1 m/s 755 mmHg 95%
    06:00 +27°C° 0.1 mm 2 m/s 755 mmHg 94%
    07:00 +28°C° 0.1 mm 2 m/s 755 mmHg 93%
    08:00 +30°C° 0.1 mm 2 m/s 756 mmHg 84%
    09:00 +32°C° 0.1 mm 2 m/s 756 mmHg 75%
    10:00 +35°C° 0 mm 3 m/s 756 mmHg 66%
    11:00 +35°C° 0.2 mm 3 m/s 755 mmHg 65%
    12:00 +36°C° 0.2 mm 3 m/s 755 mmHg 64%
    13:00 +36°C° 0.2 mm 4 m/s 754 mmHg 63%
    14:00 +35°C° 0.9 mm 4 m/s 754 mmHg 70%
    15:00 +34°C° 0.9 mm 4 m/s 754 mmHg 76%
    16:00 +31°C° 0 mm 2 m/s 754 mmHg 87%
    23:00 +28°C° 1.7 mm 2 m/s 756 mmHg 95%

    Demain, 22 Février, Samedi

    Heure Température Précipitation Vent Pression Humidité
    00:00 +27°C° 0.6 mm 2 m/s 756 mmHg 96%
    01:00 +27°C° 0.6 mm 2 m/s 756 mmHg 96%
    02:00 +27°C° 0.1 mm 2 m/s 755 mmHg 97%
    03:00 +27°C° 0.1 mm 3 m/s 755 mmHg 97%
    04:00 +27°C° 0.1 mm 3 m/s 755 mmHg 97%
    05:00 +27°C° 0.6 mm 3 m/s 755 mmHg 97%
    06:00 +27°C° 0.6 mm 3 m/s 755 mmHg 96%
    07:00 +27°C° 0.6 mm 3 m/s 756 mmHg 96%
    08:00 +28°C° 1 mm 3 m/s 756 mmHg 93%
    09:00 +29°C° 1 mm 3 m/s 756 mmHg 91%
    10:00 +30°C° 1 mm 3 m/s 756 mmHg 88%
    11:00 +30°C° 0.8 mm 4 m/s 756 mmHg 83%
    12:00 +32°C° 0.8 mm 4 m/s 755 mmHg 79%
    13:00 +33°C° 0.8 mm 4 m/s 755 mmHg 74%
    14:00 +33°C° 0.9 mm 5 m/s 755 mmHg 74%
    15:00 +32°C° 0.9 mm 5 m/s 754 mmHg 75%
    16:00 +32°C° 0.9 mm 5 m/s 754 mmHg 75%
    17:00 +30°C° 0.6 mm 5 m/s 754 mmHg 80%
    18:00 +29°C° 0.6 mm 4 m/s 755 mmHg 84%
    19:00 +28°C° 0.6 mm 4 m/s 755 mmHg 89%
    20:00 +27°C° 1 mm 4 m/s 755 mmHg 92%
    21:00 +27°C° 1 mm 3 m/s 756 mmHg 94%
    22:00 +27°C° 1 mm 3 m/s 756 mmHg 97%
    23:00 +27°C° 1.4 mm 3 m/s 756 mmHg 97%

    Après-demain, 23 Février, Dimanche

    Heure Température Précipitation Vent Pression Humidité
    00:00 +27°C° 1.4 mm 3 m/s 756 mmHg 97%
    01:00 +27°C° 1.4 mm 3 m/s 755 mmHg 98%
    02:00 +27°C° 1.8 mm 3 m/s 755 mmHg 98%
    03:00 +27°C° 1.8 mm 3 m/s 755 mmHg 98%
    04:00 +27°C° 1.8 mm 3 m/s 755 mmHg 98%
    05:00 +27°C° 2.5 mm 2 m/s 755 mmHg 98%
    06:00 +27°C° 2.5 mm 2 m/s 755 mmHg 98%
    07:00 +27°C° 2.5 mm 1 m/s 756 mmHg 98%
    08:00 +28°C° 1.6 mm 2 m/s 756 mmHg 97%
    09:00 +28°C° 1.6 mm 2 m/s 757 mmHg 96%
    10:00 +28°C° 1.6 mm 2 m/s 757 mmHg 95%
    11:00 +28°C° 1.2 mm 2 m/s 757 mmHg 95%
    12:00 +28°C° 1.2 mm 2 m/s 756 mmHg 96%
    13:00 +28°C° 1.2 mm 2 m/s 756 mmHg 96%
    14:00 +28°C° 0.5 mm 2 m/s 755 mmHg 95%
    15:00 +29°C° 0.5 mm 2 m/s 755 mmHg 94%
    16:00 +29°C° 0.5 mm 3 m/s 755 mmHg 93%
    17:00 +28°C° 0.6 mm 3 m/s 755 mmHg 94%
    18:00 +28°C° 0.6 mm 3 m/s 755 mmHg 96%
    19:00 +27°C° 0.6 mm 3 m/s 755 mmHg 98%
    20:00 +27°C° 0.1 mm 3 m/s 756 mmHg 98%
    21:00 +27°C° 0.1 mm 3 m/s 756 mmHg 98%
    22:00 +27°C° 0.1 mm 3 m/s 757 mmHg 99%
    23:00 +27°C° 1.1 mm 3 m/s 756 mmHg 99%

    24 Février, Lundi

    Heure Température Précipitation Vent Pression Humidité
    00:00 +27°C° 1.1 mm 3 m/s 756 mmHg 99%
    01:00 +27°C° 1.1 mm 3 m/s 756 mmHg 99%
    02:00 +27°C° 2.7 mm 3 m/s 755 mmHg 99%
    03:00 +27°C° 2.7 mm 3 m/s 755 mmHg 99%
    04:00 +27°C° 2.7 mm 3 m/s 755 mmHg 99%
    05:00 +27°C° 3.3 mm 3 m/s 755 mmHg 99%
    06:00 +27°C° 3.3 mm 2 m/s 756 mmHg 99%
    07:00 +27°C° 3.3 mm 2 m/s 756 mmHg 99%
    08:00 +28°C° 5.9 mm 2 m/s 756 mmHg 98%
    09:00 +28°C° 5.9 mm 2 m/s 756 mmHg 98%
    10:00 +28°C° 5.9 mm 2 m/s 757 mmHg 97%
    11:00 +28°C° 2.4 mm 2 m/s 756 mmHg 95%
    12:00 +29°C° 2.4 mm 2 m/s 756 mmHg 93%
    13:00 +29°C° 2.4 mm 2 m/s 756 mmHg 91%
    14:00 +29°C° 8 mm 3 m/s 755 mmHg 94%
    15:00 +28°C° 8 mm 3 m/s 755 mmHg 96%
    16:00 +27°C° 8 mm 3 m/s 755 mmHg 99%
    17:00 +27°C° 20.8 mm 3 m/s 755 mmHg 99%
    18:00 +27°C° 20.8 mm 3 m/s 755 mmHg 99%
    19:00 +27°C° 20.8 mm 3 m/s 756 mmHg 99%
    20:00 +27°C° 9.6 mm 3 m/s 756 mmHg 99%
    21:00 +27°C° 9.6 mm 2 m/s 757 mmHg 99%
    22:00 +27°C° 9.6 mm 1 m/s 757 mmHg 99%
    23:00 +27°C° 4.5 mm 1 m/s 757 mmHg 99%

    25 Février, Mardi

    Heure Température Précipitation Vent Pression Humidité
    00:00 +26°C° 4.5 mm 1 m/s 756 mmHg 99%
    01:00 +26°C° 4.5 mm 1 m/s 756 mmHg 99%
    02:00 +26°C° 2.3 mm 1 m/s 756 mmHg 99%
    03:00 +26°C° 2.3 mm 1 m/s 755 mmHg 99%
    04:00 +26°C° 2.3 mm 1 m/s 755 mmHg 99%
    05:00 +26°C° 1.8 mm 1 m/s 756 mmHg 99%
    06:00 +26°C° 1.8 mm 1 m/s 756 mmHg 99%
    07:00 +26°C° 1.8 mm 1 m/s 756 mmHg 98%
    08:00 +27°C° 0.6 mm 1 m/s 757 mmHg 98%
    09:00 +27°C° 0.6 mm 1 m/s 757 mmHg 98%
    10:00 +27°C° 0.6 mm 2 m/s 757 mmHg 97%
    11:00 +28°C° 0.5 mm 1 m/s 757 mmHg 97%
    12:00 +28°C° 0.5 mm 1 m/s 756 mmHg 97%
    13:00 +28°C° 0.5 mm 1 m/s 756 mmHg 96%
    14:00 +29°C° 0.2 mm 1 m/s 755 mmHg 91%
    15:00 +29°C° 0.2 mm 1 m/s 755 mmHg 86%
    16:00 +30°C° 0.2 mm 1 m/s 754 mmHg 81%
    17:00 +29°C° 0.2 mm 1 m/s 755 mmHg 87%
    18:00 +28°C° 0.2 mm 2 m/s 755 mmHg 92%
    19:00 +27°C° 0.2 mm 2 m/s 755 mmHg 98%
    20:00 +27°C° 0 mm 1 m/s 756 mmHg 97%
    21:00 +27°C° 0 mm 1 m/s 756 mmHg 97%
    22:00 +26°C° 0 mm 1 m/s 757 mmHg 97%
    23:00 +26°C° 0.1 mm 1 m/s 756 mmHg 97%

    26 Février, Mercredi

    Heure Température Précipitation Vent Pression Humidité
    00:00 +26°C° 0.1 mm 1 m/s 756 mmHg 97%
    01:00 +26°C° 0.1 mm 1 m/s 756 mmHg 97%
    02:00 +26°C° 0.2 mm 1 m/s 755 mmHg 97%
    03:00 +26°C° 0.2 mm 1 m/s 755 mmHg 97%
    04:00 +26°C° 0.2 mm 1 m/s 755 mmHg 97%
    05:00 +26°C° 0.6 mm 1 m/s 755 mmHg 96%
    06:00 +26°C° 0.6 mm 1 m/s 755 mmHg 95%
    07:00 +26°C° 0.6 mm 1 m/s 756 mmHg 94%
    08:00 +28°C° 0.6 mm 1 m/s 756 mmHg 89%
    09:00 +30°C° 0.6 mm 1 m/s 756 mmHg 84%
    10:00 +30°C° 0.6 mm 0 m/s 756 mmHg 79%
    11:00 +29°C° 0.4 mm 0 m/s 756 mmHg 83%
    12:00 +30°C° 0.4 mm 1 m/s 755 mmHg 86%
    13:00 +30°C° 0.4 mm 1 m/s 754 mmHg 90%
    14:00 +30°C° 0.2 mm 1 m/s 754 mmHg 88%
    15:00 +30°C° 0.2 mm 1 m/s 753 mmHg 87%
    16:00 +30°C° 0.2 mm 1 m/s 753 mmHg 85%
    17:00 +29°C° 0.1 mm 1 m/s 753 mmHg 87%
    18:00 +29°C° 0.1 mm 1 m/s 754 mmHg 90%
    19:00 +26°C° 0.1 mm 0 m/s 754 mmHg 93%
    20:00 +28°C° 0.3 mm 1 m/s 755 mmHg 93%
    21:00 +27°C° 0.3 mm 1 m/s 755 mmHg 94%
    22:00 +27°C° 0.3 mm 1 m/s 755 mmHg 94%
    23:00 +27°C° 1.4 mm 1 m/s 755 mmHg 95%
    Voir plus